#timestamp,LO_Frequency,Hit,StdDev 
1558422015.6,286046995.8,P
1558422035.5,286046997.1,N
1558422055.3,286047002.7,N
1558422075.1,286047003.7,N
1558422095.9,286047003.9,N
1558422115.7,286047003.1,N
1558422135.5,286047005.6,N
1558422155.4,286047003.9,N
1558422175.2,286047003.5,N
1558422195.1,286047003.4,N
1558422196.0,286047003.4,N
1558422215.8,286047003.2,N
1558422235.6,286047003.7,N
1558422255.5,286047003.5,N
1558422275.3,286047005.7,N
1558422295.1,286047004.1,N
1558422315.9,286047004.0,N
1558422335.7,286047002.0,N
1558422355.6,286047004.3,N
1558422375.4,286046999.8,N
1558422395.2,286047000.5,N
1558422415.1,286047000.8,N
1558422416.0,286047000.8,N
1558422435.8,286046998.2,N
1558422455.6,286047000.7,N
1558422475.5,286046999.3,N
1558422495.3,286046998.9,N
1558422515.2,286046998.7,N
1558422535.9,286047000.2,N
1558422555.7,286046998.2,N
1558422575.6,286047000.4,N
1558422595.4,286047002.7,N
1558422615.2,286047001.6,N
1558422635.1,286047001.4,N
1558422636.0,286047001.4,N
1558422655.8,286046998.2,N
1558422675.7,286047000.2,N
1558422695.5,286047001.0,N
1558422715.3,286046998.4,N
1558422735.2,286046999.4,N
1558422755.0,286046996.5,N
1558422755.9,286046996.5,N
1558422775.8,286046998.0,N
1558422795.6,286046997.5,N
1558422815.4,286046997.3,N
1558422835.3,286046997.8,N
1558422855.1,286046997.8,N
1558422875.8,286046997.4,N
1558422895.7,286046998.0,N
1558422915.5,286046997.3,N
1558422935.4,286046996.8,N
1558422955.2,286046996.5,N
1558422975.0,286046998.0,N
1558422975.9,286046998.0,N
1558422995.8,286046995.5,N
1558423015.6,286046997.7,N
1558423035.5,286046996.2,N
1558423055.3,286046996.0,N
1558423075.1,286046993.7,Y
1558423095.9,286046995.0,P
1558423115.7,286046997.3,N
1558423135.5,286046997.0,N
1558423155.4,286046995.2,Y
1558423175.2,286046999.1,P
1558423195.0,286046998.9,N
1558423195.9,286046998.9,N
1558423215.8,286046998.2,N
1558423235.6,286046999.6,N
1558423255.4,286046995.3,Y
1558423275.2,286046997.8,P
1558423295.1,286046999.6,N
1558423296.0,286046999.6,N
1558423315.8,286046995.0,Y
1558423335.7,286046997.1,P
1558423355.5,286046994.9,P
1558423375.3,286046995.1,P
1558423395.2,286046995.4,N
1558423415.9,286046998.1,N
1558423435.7,286046996.6,N
1558423455.6,286046999.0,N
1558423475.4,286046998.9,N
1558423495.2,286046998.5,N
1558423515.1,286047001.0,N
1558423516.0,286047001.0,N
1558423535.8,286047000.5,N
1558423555.7,286046998.3,N
1558423575.5,286046999.5,N
1558423595.3,286046999.2,N
1558423615.2,286046998.8,N
1558423635.0,286046999.5,N
1558423635.9,286046999.5,N
1558423655.7,286046998.6,N
1558423675.6,286047001.8,N
1558423695.4,286047003.0,N
1558423715.3,286047004.4,N
1558423735.1,286047003.9,N
1558423755.9,286047002.8,N
1558423775.7,286047000.6,N
1558423795.5,286047002.1,N
1558423815.4,286047004.4,N
1558423835.2,286047004.2,N
1558423855.1,286047003.9,N
1558423856.0,286047003.9,N
1558423875.8,286047002.1,N
1558423895.6,286047002.8,N
1558423915.5,286046999.8,N
1558423935.3,286047000.2,N
1558423955.1,286047000.5,N
1558423975.9,286046999.4,N
1558423995.7,286047000.6,N
1558424015.6,286047002.2,N
1558424035.4,286047003.6,N
1558424055.2,286047002.1,N
1558424075.1,286047002.3,N
1558424076.0,286047002.3,N
1558424095.8,286047002.6,N
1558424115.6,286047001.9,N
1558424135.5,286047002.9,N
1558424155.3,286047004.2,N
1558424175.2,286047001.7,N
1558424195.9,286047004.0,N
1558424215.7,286047004.4,N
1558424235.6,286047003.3,N
1558424255.4,286047000.3,N
1558424275.3,286047000.7,N
1558424295.1,286046998.1,N
1558424296.0,286046998.1,N
1558424315.8,286047000.3,N
1558424335.7,286047001.5,N
1558424355.5,286047004.1,N
1558424375.3,286047004.1,N
1558424395.2,286047002.0,N
1558424415.0,286047002.4,N
1558424415.9,286047002.4,N
1558424435.8,286047002.5,N
1558424455.6,286047002.8,N
1558424475.4,286047000.9,N
1558424495.3,286047002.7,N
1558424515.1,286047000.8,N
1558424535.5,286046999.9,N
1558424555.4,286047001.0,N
1558424575.2,286046998.5,N
1558424595.0,286047002.6,N
1558424595.9,286047002.6,N
1558424615.8,286047000.6,N
1558424635.6,286047000.7,N
1558424655.5,286046998.5,N
1558424675.3,286046998.8,N
1558424695.7,286046999.3,N
1558424715.6,286046998.9,N
1558424735.4,286046998.5,N
1558424755.3,286047001.0,N
1558424775.1,286047003.9,N
1558424776.0,286047003.9,N
1558424795.8,286047004.0,N
1558424815.7,286047006.0,Y
1558424835.5,286047002.4,P
1558424855.4,286047000.7,N
1558424875.2,286046998.7,N
1558424895.0,286046998.3,N
1558424895.9,286046998.3,N
1558424915.8,286047001.0,N
1558424935.6,286047000.3,N
1558424955.4,286046998.4,N
1558424975.3,286047000.7,N
1558424995.1,286047000.6,N
1558425015.9,286047002.7,N
1558425035.7,286047002.2,N
1558425055.5,286047002.0,N
1558425075.4,286047002.8,N
1558425095.2,286047000.1,N
1558425115.0,286046998.7,N
1558425115.9,286046998.7,N
1558425135.1,286046999.4,N
1558425155.8,286046998.3,N
1558425175.7,286047000.0,N
1558425195.5,286046998.5,N
1558425215.4,286046998.6,N
1558425235.2,286046999.1,N
1558425255.0,286046998.5,N
1558425255.9,286046998.5,N
1558425275.8,286047001.2,N
1558425295.6,286047002.6,N
1558425315.4,286047000.5,N
1558425335.3,286046999.2,N
1558425355.1,286046999.9,N
1558425375.9,286046998.6,N
1558425395.7,286046999.3,N
1558425415.5,286046996.9,N
1558425435.4,286046998.1,N
1558425455.2,286047000.7,N
1558425475.1,286046996.5,N
1558425476.0,286046996.5,N
1558425495.8,286046999.1,N
1558425515.6,286047000.9,N
1558425535.5,286046998.5,N
1558425555.3,286046999.3,N
1558425575.2,286046999.1,N
1558425595.0,286046996.5,N
1558425595.9,286046996.5,N
